timestamp,gas_concentrations,,corrected_fluxes_and_quality_flags,,,,,,,,,,storage_terms,,,turbulence,,,footprint,,
ISOdate,CO2_1_1_1,H2O_1_1_1,Tau_1_1_1,QcTau_1_1_1,H_1_1_1,QcH_1_1_1,LE_1_1_1, QcLE_1_1_1,Fc_1_1_1, QcFc_1_1_1,E_1_1_1, QcE_1_1_1,Sa_1_1_1,Sw_1_1_1,Sc_1_1_1,ustar_1_1_1,MO_length_1_1_1,ZL_1_1_1,Fetchmax_1_1_1,Fetch70_1_1_1,Fetch90_1_1_1
yyyymmddHHMM,[µmol+1mol_a-1],[mmol+1mol_a-1],[kg+1m-1s-2],[#],[W+1m-2],[#],[W+1m-2],[#],[µmol+1s-1m-2],[#],[mmol+1s-1m-2],[#],[W+1m-2],[W+1m-2],[µmol+1s-1m-2],[m+1s-1],[m],[#],[m],[m],[m]
201807070030,390.16399520950853,10.771520071570492,0.14721780988817390,1,-0.35134444740996412,0,88.935604464911165,0,-5.2885683508997596,0,2.0177652138403310,0,-9999.,-9999.,-9999.,0.36183748940199351,11421.061413673393,1.89124278538072618E-003,110.24272607836085,201.55886338537312,301.97190618504465
201807070100,389.45830222794325,11.099760738730172,5.99801888251493553E-002,0,-11.130610573737496,0,41.818654257369737,0,-2.5978395281471598,0,0.94843613018940465,0,-8.2587119324036422,10.982174221370386,-0.53548804261792682,0.23084167235570721,93.606972316095991,0.23075204192119586,104.18009725343103,190.47444431711034,285.36542657517759
201807070130,390.34148653525523,11.381962990678439,1.20027209478655757E-002,0,-8.2716956708461034,0,13.420223780703427,1,-6.91836674647239303E-003,2,0.30421845487351601,1,-11.193450302692375,9.4625835004420757,0.67131506311668776,0.10318174972718014,11.248971071417806,1.9201756198736109,605.95766923540816,5677.0000000000000,-9999.
201807070200,391.76260807576659,12.051075127360093,0.17877928218507436,1,79.064381261143467,2,-67.407777804638599,2,-0.87438334904150894,2,-1.5266225218595477,2,-21.400699826896894,22.529841413465952,1.0837075637263807,0.39762519618398384,-67.354936250693186,-0.32068919076109592,202.28710282189462,369.84534012085106,554.09571414587685
201807070230,393.15862822155270,12.645508297459513,1.42353744264398039E-002,1,-0.66667719814878790,2,-5.3752423335712187,2,-0.59401298752763443,2,-0.12153811098649391,2,-37.715996902141178,20.163483364950096,1.0707020762370343,0.11189244100991730,178.00916508178497,0.12134206679794293,175.39648380863397,1424.0000000000000,6371.0000000000000
201807070300,392.37385610104587,12.689423411795827,3.21658704094454455E-003,1,-4.8645203431581550,1,14.382445210323400,1,2.1298291185026121,1,0.32507107433663207,1,-9.0246387638353500,1.4921229121643256,-0.60267023908176609,5.31542467333145988E-002,2.6151760300491564,8.2594822496877942,1649.5190896594570,-9999.,-9999.
201807070330,392.05229026784446,12.165742085878488,1.09479681766341081E-003,1,-0.58306134695378298,2,-0.31631301161650349,2,8.65120158607809303E-002,2,-7.14870150840636511E-003,2,-1.8977667623277934,-17.798308221002628,-0.24699697844250512,3.10042402466780206E-002,4.3292028147467869,4.9893712362984717,5083.4186106148763,-9999.,-9999.
201807070400,393.67989843612872,12.370975777031024,6.88570975703640172E-003,1,-4.4599611139593511,0,8.5295073805085302,1,0.59684845449141155,0,0.19276680064247037,1,-9.71194204215239942E-002,6.9743011993697852,1.2500005212525434,7.77635934937483814E-002,8.9294223786765947,2.4189694567008799,1581.1714673140832,-9999.,-9999.
201807070430,399.04786962445741,12.998151333624760,1.76820586458277459E-002,0,-17.838340347625717,0,33.704666021412208,0,4.0169106379892838,0,0.76145864881997716,0,-8.1376306736915414,21.343067157972893,4.1269972449868568,0.12456277909199101,9.1753841257299769,2.3541248741214464,767.43891183317180,7114.0000000000000,-9999.
201807070500,395.35270843339555,12.784228259957946,1.75940930107184104E-002,0,-14.602643555468235,0,51.716938576174947,0,6.8222376119172772,0,1.1687745845718205,0,7.5743142796677878,-7.2682940151024695,-2.8373061250754201,0.12432637296363547,11.143593322498955,1.9383334778010539,713.78853645660445,6843.0000000000000,-9999.
201807070530,391.24209099674329,12.931160523077631,1.38149734701321306E-002,1,-7.4860427062721335,0,-5.1828367402796109,1,1.0329718504317125,0,-0.11719349082934002,1,12.697620858734087,4.9801213544256964,-3.1504005885223596,0.11027422574619723,15.169601823652664,1.4239002612659857,645.09824337110706,6506.0000000000000,-9999.
201807070600,392.93406833384779,13.290109367645165,4.80219917538253147E-003,1,-3.7814148915554657,1,-0.19532091321579001,2,0.85996213351629225,1,-4.41434343816067120E-003,2,-11.684161292959507,12.195667922677352,1.2992267228532426,6.49580310448908543E-002,6.1391857741606781,3.5183818823194115,2120.5432464764681,-9999.,-9999.
201807070630,399.70056296634277,13.788577219632938,4.76842959633331578E-002,0,-34.479265040455559,0,6.4797148957849560,0,4.5819255932616487,0,0.14629564405634349,0,-23.723692558340346,17.014141306914524,5.2144933798276796,0.20434433732748089,20.961088599458130,1.0304808310651570,304.76309780233538,2899.0000000000000,-9999.
201807070700,415.27854738226154,14.055221330762103,4.58710385195792714E-002,0,-22.464628028288626,0,-4.2183810186260073,1,2.8969961396200299,0,-9.50504294152093449E-002,1,-46.970067333187487,9.1859764019939067,12.092410254272195,0.19970530497100408,30.032354227436908,0.71922433507615957,214.40757829070174,2028.0000000000000,-9999.
201807070730,412.34201616345973,13.588784323969666,7.08141804159606036E-002,0,-39.705852416190254,0,4.1189071801460200,0,8.1755218732552049,0,9.27508172728461339E-002,0,-14.813003566995413,-16.115771950718564,-2.2846962853997157,0.24782539601645803,32.469051308649618,0.66524887945358147,99.674053350237358,182.23595893307933,273.02267422130615
201807070800,412.81979874976992,13.567659876671383,0.13538774758210212,0,-69.771215998714297,0,4.8890508130874721,1,15.757945860714118,0,0.11007014253634891,1,-4.9398236735508183,-0.73071693666878468,0.37208238786175557,0.34250440286521378,48.782927222054894,0.44277785754182014,102.53449645374816,187.46576121783377,280.85787103861867
201807070830,412.55706438207056,13.346951751704497,0.11377798714291215,0,-60.562646915251165,0,4.5111619902970554,1,15.983324903760046,0,0.10153969119387514,1,-5.3148648267858336,-7.6420271909125539,-0.20476444986658190,0.31385058826347711,43.238865034779487,0.49955057753310333,96.030295024687177,175.57400659686039,263.04185565499182
201807070900,412.04255018019956,13.032445819762469,0.16049514662199324,0,-53.501236442864361,0,20.986245871823453,0,11.327960878549460,0,0.47234427428657155,0,-1.2816585574949679,-10.893766977661869,-0.40111648008772782,0.37267571178005782,81.950522200956129,0.26357367128220682,101.47856614182739,185.53518383594255,277.96551432328636
201807070930,411.85569969224059,12.565725378469635,0.10837443571867759,0,-56.124470938902562,0,29.746861042569392,0,9.8172671331485528,0,0.66935050698153542,0,-6.0794588798226039,-16.184578692227049,-0.14579789858586606,0.30607870054158048,43.273142747760836,0.49915487132299147,89.845495917959283,164.26622128925780,246.10073271593583
201807071000,411.19651758396964,12.178921808398551,0.16915865524964463,0,-72.592963412806597,0,28.766066979754342,0,10.057467391399978,0,0.64714948409154960,0,-4.8226997293543983,-13.425734742113747,-0.51472720367290525,0.38223244233556020,65.151610759395254,0.33153439720421879,100.80466840254108,184.30308383986687,276.11960401114993
201807071030,409.86468353924903,11.948428036962616,0.17633867538785117,0,-56.086578776951256,0,19.954093796650735,0,8.1330246248634328,0,0.44890315123569552,0,-0.18987646014292231,-8.0009595313934891,-1.0400486071029982,0.39022878436990044,89.728937678921056,0.24072501646338149,103.24836078607376,188.77093289267634,282.81325604095110
201807071100,407.99611675536227,11.781339427648225,0.16053042226322922,0,-59.589981252057164,0,25.129979087232289,0,5.5296655335087461,0,0.56538327202054217,0,1.6480665353931074,-5.7995619647605592,-1.4591764126354938,0.37231675486200022,73.360329866026532,0.29443706209400577,98.880206151549132,180.78455306929902,270.84820375658683
201807071130,405.37238735546754,11.763158711358555,0.24377195695262491,0,-43.294570785163707,0,28.120622740299460,0,2.3686155789691457,0,0.63299607603325669,0,12.272457859253125,-0.62950685940386009,-2.0449589880007961,0.45924145761500856,189.48577558053884,0.11399272548993609,99.623143075853719,182.14287871450685,272.88322309244802
201807071200,402.22488279450835,12.078262887051597,0.22927690593523625,0,-28.213480102525807,0,36.981622685678474,0,0.32339818753376703,0,0.83295712887989948,0,14.160641318514447,10.880443962160131,-2.4479103717680686,0.44588572589252756,266.15370168675867,8.11561134153281488E-002,95.565091074978156,174.72346540760233,261.76758996458614
201807071230,399.13583260066514,12.466207304522616,0.36630455741911988,0,2.9919821606901418,1,63.407655010554812,0,-0.98128161087020138,1,1.4292061460701331,0,17.139729936264192,13.348379875557544,-2.3957262919178191,0.56442342807513024,-5090.4264909389103,-4.24325938866783672E-003,113.46890447174795,207.45734642530942,310.80890862320672
201807071300,396.59822948063919,12.902596858737413,0.33736511370206657,0,36.862462727391360,0,65.803481197102556,0,-5.7718134361475739,0,1.4843391579968981,0,17.868114246210588,14.961744137238480,-1.9625279549003476,0.54247534172774425,-366.83412291168810,-5.88821994763011752E-002,100.43789144817809,183.63249858978148,275.11494510989041
201807071330,393.45256407044661,13.501588883349164,0.28955755156913821,0,74.094562553295376,1,95.788815661815619,0,-7.4638692188742368,1,2.1626855187166658,0,21.192080725358970,20.448797327987261,-2.4245873004449225,0.50347767814013034,-145.90822735157144,-0.14803825933649359,98.915895884190633,180.84980528322410,270.94596346355678
201807071400,390.34476815301167,13.957824837647310,0.44895056869167865,0,74.737562002110352,0,84.209873729668175,0,-7.5636225071538430,0,1.9028070140309281,0,18.904664665805289,15.511719330778845,-2.3875619546595597,0.62800234210378014,-280.66815988315011,-7.69592105103502899E-002,95.907247620384737,175.34903669783870,262.70480975137434
201807071430,387.07337755645824,14.154732115140670,0.81994649942533571,0,109.09016775575208,0,148.51889192458748,0,-10.138167161736300,0,3.3590676340241159,0,21.597912000966453,6.6634107065635915,-2.5038266853521685,0.85032737449667450,-477.20673118506608,-4.52634017679505035E-002,105.97143262204305,193.74957668804623,290.27217167409657
201807071500,386.09233007476558,14.197501761045492,0.79884962484606548,0,159.40946966587478,0,167.33571796753077,0,-13.191164593015902,0,3.7873325156262760,0,16.338796585736841,1.4422347589947044,-0.74874703535336151,0.84050990952910032,-315.32491270705145,-6.85007721545528581E-002,102.74272023327634,187.84646069637964,281.42822823000819
201807071530,385.45828392138804,14.236997479237154,0.75053606757799896,0,130.02430279525274,0,140.00133406915413,0,-9.2738283363945140,0,3.1705830036770069,0,13.878605796078395,1.3279741500419080,-0.48280018856645629,0.81564021290850230,-353.24042313680150,-6.11481545860192849E-002,100.95745078911736,184.58241876997127,276.53809863793504
201807071600,384.41229619464644,14.222355708419743,1.1917854766283120,0,280.32515358219752,0,280.75376784255616,0,-21.740665529472828,0,6.3609875989505680,0,10.141018324597065,-0.49121732086300585,-0.79507044826002593,1.0287135238141152,-328.66790812737889,-6.57198328947549149E-002,116.09297989987256,212.25499321385431,317.99665775815544
201807071630,383.22597116836971,14.224342831789659,0.70623471282670525,0,169.84535521795979,0,164.83401384996580,0,-13.466568838670018,0,3.7360871380216207,0,9.0259737024856896,6.65438711926004262E-002,-0.90044478315237397,0.79247015152901923,-247.98032678222853,-8.71036839102510702E-002,103.04372179377904,188.39678754850252,282.25271813717058
201807071700,382.65773622604308,14.262830182444420,0.60814431985383466,0,192.37924165231342,0,226.55788643688862,0,-14.228113456072789,0,5.1383382506495456,0,14.371950148152040,1.2852169269168638,-0.43035798134734921,0.73619120074187949,-175.52891616962231,-0.12305664770998101,94.511984404618502,172.79805054303912,258.88296764094503
201807071730,381.97109570577527,14.321899085547319,0.59276553288443645,0,233.16971149200219,0,211.75246681498768,0,-14.837191402922238,0,4.8039096839994304,0,6.4500945504239544,1.9700074992908085,-0.51952297388544377,0.72718839815505953,-139.57662828187512,-0.15475370243490036,98.597171184486982,180.26707488013656,270.07292713234926
201807071800,382.14305317444177,14.396417326340311,0.63906349236460536,0,237.07404669252801,0,276.12298443822164,0,-16.384697359804079,0,6.2683389389518576,0,14.845311436531400,2.4776288533601738,0.12979101010977034,0.75597860724321353,-154.22522684921901,-0.14005490827462111,95.409385521263516,174.43878599567265,261.34108833013465
201807071830,382.63270709334785,14.240525833378385,0.76743921193119347,0,260.06478539558873,0,249.42095863966568,0,-17.013599765700793,0,5.6635402655078400,0,5.4945234797665483,-5.1751734370261184,0.36910232075279520,0.82895248640270369,-185.29609953726356,-0.11657018174662755,108.25449087724246,197.92373532263491,296.52582194000183
201807071900,382.71429419540959,13.949139593022444,0.82004218635846016,0,228.46299942535342,0,266.65383174067102,0,-13.842082618770363,0,6.0570592547701469,0,8.2895496955923704,-9.6530844407770182,6.13949381576958456E-002,0.85758056562284279,-233.45947909990363,-9.25214092110467623E-002,101.96349705544699,186.42179220682158,279.29381522406129
201807071930,382.52417053263673,13.468143858782573,0.72681424235528191,0,171.03980831640249,0,181.41938193894450,0,-11.888905260276823,0,4.1219888198730779,0,5.6826559001569592,-15.911359073007539,-0.14289773686612889,0.80777384614769931,-260.51930978243752,-8.29113205391124181E-002,93.294881931552538,170.57279904735014,255.54913540648980
201807072000,382.31155613742021,13.498697076208634,1.0546745331999730,0,286.07016943625939,0,479.29534786557724,0,-17.143059860497107,0,10.895335613679151,0,11.132991664867568,1.0083524990161734,-0.15950911027937426,0.97395300061092016,-273.00967046274218,-7.91180765259660163E-002,109.95563830409974,201.03397537207439,301.18552829400420
201807072030,381.67371710858663,13.996378504515228,0.93746996919392478,0,212.23667204737919,0,324.23771576431096,0,-10.164354081193572,0,7.3722089032327922,0,5.0174873367091974,16.403139185347140,-0.47799210905493367,0.91884049156752945,-308.93640621038253,-6.99173019617850555E-002,110.19365204634572,201.46914040348972,301.83748480851534
201807072100,381.65959232109833,13.725187436871767,1.1018220523610414,0,196.71108364810345,0,268.60988100376534,0,-13.369716374707302,0,6.1069513289462742,0,-1.6407341164736249,-8.9384269372061809,-1.05844942295767359E-002,0.99610590179123093,-424.56367898534546,-5.08757603844523926E-002,108.42668226735955,198.23855610139614,296.99748083444314
201807072130,381.02876742523995,13.456512032823934,1.0329206489475462,0,165.29328244593441,0,309.43488071053457,0,-11.693321383763390,0,7.0357408711228171,0,1.9749854300924976,-8.8497910836529208,-0.47244852868130222,0.96467793244502165,-458.82720662204235,-4.70765457851171909E-002,110.80989009893278,202.59582010266530,303.52545630580221
201807072200,381.12571365222158,12.949340865615582,0.81687811718412828,0,114.68650137922077,0,231.74819002788806,0,-5.4246759409389469,0,5.2694439766057908,0,0.40795430194421894,-16.700035128150279,7.25842144553515284E-002,0.85793195871642092,-465.03998930732371,-4.64476184772263656E-002,104.03956955386627,190.21751486329495,284.98049943468578
201807072230,383.08700055577202,12.412260520652117,0.89790804130873314,0,115.36941844564923,0,236.53861723486744,0,-8.2322294517505501,0,5.3773999701513677,0,-4.0506522957604050,-17.690824782161169,1.4686565177985278,0.89931515841039933,-532.23526908748886,-4.05835562852363205E-002,105.76524120989703,193.37259302526527,289.70738145183316
201807072300,384.05314942503441,12.093097286134082,0.83801338104657352,0,56.984733123808276,0,160.73284129129829,0,-5.6309639854525955,0,3.6532968697541217,0,-4.6654012209000522,-10.521946201072867,0.72394839902581565,0.86846616811465793,-970.31848045326785,-2.22607323627495232E-002,106.51797252196886,194.74882593507138,291.76922913319339
201807072330,384.63272363534617,11.840077486439203,0.90168138794613839,0,45.972580965155323,0,176.19580568262202,0,-4.0368439333973214,0,4.0043063021749008,0,-2.5227499342863857,-8.3443990349443311,0.43439151495198564,0.90069707273134592,-1341.4959779195017,-1.61014273285403318E-002,106.97294283638753,195.58065677516808,293.01546331108341
201807080000,385.94698386046724,11.833902883341700,0.71163603493499117,0,22.957338641712131,1,171.92605703008894,0,-5.1982538763285584,1,3.9062046859310691,0,-6.1503537603088940,-0.20381971456534914,0.98567059510422406,0.79991083157518772,-1881.2966826945908,-1.14814426659500673E-002,98.736810893957596,180.52238080484994,270.45542193040058
